GFSFLT2_prec_precacc_072.txt.gz
Total_Precipitation_Accumulation
1.81 1.32 1.26 0.87 0.46 0.02 0.00 0.00 0.00 0.00 0.00 0.00 0.01 0.01 0.00 0.00 0.00 0.00 0.00 0.03 0.06 0.09 0.08 0.02 0.01 0.01 0.01 0.01 0.01 0.01 0.05 0.08
1.38 1.52 1.34 0.84 0.36 0.14 0.00 0.00 0.00 0.00 0.00 0.00 0.00 0.00 0.00 0.00 0.01 0.01 0.01 0.03 0.05 0.07 0.08 0.03 0.02 0.00 0.00 0.00 0.00 0.00 0.00 0.00
2.77 2.21 1.84 0.83 0.26 0.17 0.01 0.00 0.00 0.00 0.00 0.00 0.00 0.02 0.00 0.00 0.02 0.03 0.04 0.03 0.04 0.06 0.09 0.05 0.01 0.00 0.00 0.00 0.00 0.00 0.00 0.00
2.26 1.87 1.28 0.94 0.37 0.12 0.05 0.02 0.00 0.00 0.01 0.00 0.00 0.02 0.01 0.00 0.01 0.04 0.07 0.06 0.06 0.13 0.15 0.08 0.04 0.04 0.02 0.00 0.00 0.00 0.00 0.00
1.18 0.66 0.49 0.41 0.27 0.22 0.12 0.02 0.00 0.00 0.00 0.02 0.02 0.01 0.04 0.05 0.11 0.16 0.12 0.12 0.18 0.18 0.37 0.41 0.34 0.20 0.11 0.09 0.03 0.00 0.00 0.00
0.80 0.48 0.27 0.21 0.03 0.01 0.01 0.00 0.00 0.01 0.04 0.05 0.10 0.16 0.21 0.13 0.08 0.10 0.08 0.09 0.10 0.19 0.39 0.33 0.26 0.31 0.28 0.16 0.08 0.04 0.01 0.01
0.62 0.37 0.25 0.13 0.05 0.01 0.01 0.02 0.05 0.10 0.13 0.17 0.25 0.40 0.44 0.30 0.20 0.04 0.02 0.02 0.04 0.04 0.07 0.12 0.14 0.13 0.11 0.11 0.07 0.05 0.03 0.01
0.34 0.27 0.14 0.10 0.03 0.03 0.03 0.05 0.06 0.09 0.12 0.16 0.16 0.22 0.24 0.16 0.11 0.07 0.05 0.02 0.01 0.03 0.03 0.04 0.05 0.06 0.10 0.10 0.06 0.05 0.03 0.03
0.09 0.05 0.07 0.14 0.04 0.00 0.00 0.00 0.01 0.05 0.11 0.12 0.16 0.24 0.21 0.13 0.05 0.02 0.01 0.00 0.00 0.00 0.00 0.02 0.04 0.07 0.12 0.19 0.16 0.09 0.06 0.05
0.05 0.22 0.40 0.39 0.22 0.03 0.02 0.02 0.09 0.21 0.18 0.16 0.19 0.16 0.10 0.03 0.00 0.01 0.00 0.00 0.00 0.00 0.00 0.00 0.01 0.04 0.05 0.04 0.02 0.04 0.04 0.03
0.21 0.53 0.85 0.94 0.66 0.56 0.69 0.65 0.47 0.31 0.18 0.07 0.07 0.03 0.01 0.00 0.00 0.00 0.00 0.00 0.00 0.00 0.00 0.00 0.00 0.00 0.00 0.01 0.01 0.01 0.02 0.03
0.42 0.77 1.02 1.10 1.66 1.49 0.87 0.31 0.17 0.14 0.11 0.11 0.10 0.01 0.00 0.00 0.00 0.00 0.00 0.00 0.00 0.00 0.00 0.00 0.00 0.00 0.00 0.00 0.00 0.02 0.02 0.03
0.70 0.92 1.09 0.90 0.63 0.23 0.05 0.06 0.10 0.14 0.08 0.08 0.04 0.00 0.00 0.00 0.00 0.00 0.00 0.00 0.00 0.00 0.00 0.00 0.00 0.00 0.01 0.00 0.00 0.00 0.01 0.04
0.39 0.22 0.17 0.06 0.01 0.00 0.01 0.02 0.06 0.08 0.04 0.02 0.00 0.00 0.00 0.00 0.00 0.00 0.00 0.00 0.00 0.00 0.00 0.00 0.00 0.00 0.01 0.01 0.00 0.00 0.00 0.01
0.06 0.04 0.05 0.03 0.03 0.06 0.09 0.09 0.06 0.05 0.04 0.03 0.00 0.00 0.00 0.00 0.00 0.00 0.00 0.00 0.00 0.00 0.00 0.00 0.00 0.00 0.00 0.02 0.02 0.01 0.01 0.00
0.02 0.06 0.09 0.09 0.11 0.20 0.18 0.13 0.13 0.09 0.05 0.02 0.00 0.00 0.00 0.00 0.00 0.00 0.00 0.00 0.00 0.00 0.00 0.00 0.00 0.00 0.00 0.00 0.02 0.05 0.05 0.03
0.09 0.13 0.14 0.10 0.15 0.23 0.18 0.15 0.14 0.12 0.07 0.04 0.00 0.00 0.00 0.00 0.00 0.00 0.00 0.00 0.00 0.00 0.00 0.00 0.00 0.00 0.00 0.00 0.01 0.01 0.02 0.07
0.15 0.13 0.14 0.14 0.20 0.25 0.24 0.18 0.12 0.09 0.07 0.04 0.01 0.00 0.00 0.00 0.00 0.00 0.00 0.00 0.00 0.00 0.00 0.00 0.00 0.01 0.01 0.03 0.05 0.06 0.06 0.09
0.16 0.13 0.11 0.15 0.19 0.25 0.20 0.13 0.07 0.06 0.03 0.01 0.00 0.00 0.00 0.00 0.01 0.01 0.00 0.01 0.02 0.03 0.02 0.03 0.06 0.11 0.14 0.19 0.27 0.31 0.33 0.35
0.10 0.04 0.03 0.05 0.08 0.15 0.13 0.11 0.09 0.04 0.02 0.00 0.00 0.01 0.02 0.03 0.03 0.03 0.05 0.07 0.06 0.10 0.14 0.22 0.36 0.50 0.54 0.54 0.51 0.46 0.41 0.37

GFSFLT2_prec_precacc_075.txt.gz
Total_Precipitation_Accumulation
1.89 1.45 1.48 1.04 0.55 0.07 0.00 0.00 0.00 0.00 0.00 0.00 0.01 0.01 0.00 0.00 0.00 0.00 0.00 0.03 0.06 0.09 0.08 0.02 0.01 0.01 0.01 0.01 0.01 0.01 0.05 0.08
1.60 1.70 1.54 1.02 0.52 0.21 0.00 0.00 0.00 0.00 0.00 0.00 0.00 0.00 0.00 0.00 0.01 0.01 0.01 0.03 0.05 0.07 0.08 0.03 0.02 0.00 0.00 0.00 0.00 0.00 0.00 0.00
3.02 2.41 1.98 1.00 0.47 0.26 0.01 0.00 0.00 0.00 0.00 0.00 0.00 0.02 0.00 0.00 0.02 0.03 0.04 0.03 0.04 0.06 0.09 0.05 0.01 0.00 0.00 0.00 0.00 0.00 0.00 0.00
2.52 2.15 1.54 1.10 0.52 0.26 0.07 0.02 0.00 0.00 0.01 0.00 0.00 0.02 0.01 0.00 0.01 0.04 0.07 0.06 0.06 0.13 0.15 0.08 0.04 0.04 0.02 0.00 0.00 0.00 0.00 0.00
1.29 0.88 0.83 0.72 0.50 0.32 0.17 0.03 0.00 0.00 0.00 0.02 0.02 0.01 0.04 0.05 0.11 0.16 0.12 0.12 0.18 0.18 0.37 0.41 0.34 0.20 0.11 0.09 0.03 0.00 0.00 0.00
0.91 0.61 0.36 0.26 0.05 0.02 0.03 0.02 0.01 0.01 0.04 0.05 0.10 0.16 0.21 0.13 0.08 0.10 0.08 0.09 0.10 0.19 0.39 0.33 0.26 0.31 0.28 0.16 0.08 0.04 0.01 0.01
0.82 0.49 0.34 0.16 0.06 0.02 0.01 0.02 0.05 0.10 0.13 0.17 0.25 0.41 0.48 0.34 0.21 0.04 0.02 0.02 0.04 0.04 0.07 0.12 0.14 0.13 0.11 0.11 0.07 0.05 0.03 0.01
0.48 0.53 0.33 0.23 0.09 0.07 0.07 0.05 0.06 0.09 0.13 0.17 0.18 0.30 0.31 0.18 0.11 0.07 0.05 0.03 0.01 0.03 0.03 0.04 0.05 0.06 0.10 0.10 0.06 0.05 0.03 0.03
0.28 0.34 0.41 0.37 0.15 0.03 0.01 0.00 0.01 0.06 0.15 0.18 0.20 0.30 0.24 0.14 0.05 0.02 0.01 0.00 0.00 0.00 0.00 0.02 0.04 0.07 0.12 0.19 0.16 0.09 0.06 0.05
0.18 0.39 0.58 0.52 0.26 0.04 0.02 0.02 0.10 0.24 0.22 0.21 0.19 0.16 0.10 0.03 0.00 0.01 0.00 0.00 0.00 0.00 0.00 0.00 0.01 0.04 0.05 0.04 0.02 0.04 0.04 0.03
0.27 0.61 1.00 1.03 0.69 0.57 0.69 0.66 0.52 0.38 0.25 0.16 0.08 0.03 0.01 0.00 0.00 0.00 0.00 0.00 0.00 0.00 0.00 0.00 0.00 0.00 0.00 0.01 0.01 0.01 0.02 0.03
0.43 0.81 1.13 1.21 1.71 1.50 0.87 0.33 0.25 0.20 0.16 0.17 0.11 0.02 0.00 0.00 0.00 0.00 0.00 0.00 0.00 0.00 0.00 0.00 0.00 0.00 0.00 0.00 0.00 0.02 0.02 0.03
0.70 0.97 1.19 0.95 0.65 0.23 0.05 0.07 0.12 0.17 0.12 0.10 0.05 0.02 0.00 0.00 0.00 0.00 0.00 0.00 0.00 0.00 0.00 0.00 0.00 0.00 0.01 0.00 0.00 0.00 0.01 0.04
0.40 0.27 0.25 0.10 0.01 0.00 0.01 0.03 0.07 0.11 0.11 0.04 0.01 0.01 0.00 0.00 0.00 0.00 0.00 0.00 0.00 0.00 0.00 0.00 0.00 0.00 0.01 0.01 0.00 0.00 0.00 0.01
0.06 0.05 0.11 0.09 0.05 0.06 0.09 0.14 0.08 0.07 0.09 0.04 0.02 0.01 0.00 0.00 0.00 0.00 0.00 0.00 0.00 0.00 0.00 0.00 0.00 0.00 0.00 0.02 0.02 0.01 0.01 0.00
0.02 0.06 0.10 0.13 0.17 0.21 0.18 0.15 0.14 0.09 0.05 0.04 0.03 0.02 0.00 0.00 0.00 0.00 0.00 0.00 0.00 0.00 0.00 0.00 0.00 0.00 0.00 0.00 0.02 0.05 0.05 0.03
0.09 0.13 0.14 0.11 0.16 0.26 0.18 0.16 0.16 0.15 0.08 0.07 0.07 0.05 0.01 0.00 0.00 0.00 0.00 0.00 0.00 0.00 0.00 0.00 0.00 0.00 0.00 0.00 0.01 0.01 0.02 0.07
0.15 0.13 0.14 0.14 0.20 0.26 0.24 0.18 0.13 0.09 0.08 0.07 0.04 0.01 0.00 0.00 0.00 0.00 0.00 0.00 0.00 0.00 0.00 0.00 0.00 0.01 0.01 0.03 0.05 0.06 0.06 0.09
0.16 0.13 0.11 0.15 0.19 0.25 0.20 0.14 0.08 0.07 0.04 0.03 0.03 0.02 0.01 0.00 0.01 0.01 0.00 0.01 0.02 0.03 0.03 0.03 0.06 0.11 0.14 0.19 0.27 0.31 0.33 0.35
0.10 0.04 0.03 0.05 0.08 0.15 0.13 0.11 0.09 0.04 0.03 0.02 0.03 0.02 0.02 0.03 0.03 0.03 0.05 0.07 0.06 0.10 0.14 0.22 0.36 0.50 0.54 0.54 0.51 0.46 0.41 0.37

GFSFLT2_prec_precacc_078.txt.gz
Total_Precipitation_Accumulation
1.99 1.67 1.67 1.15 0.59 0.08 0.00 0.00 0.00 0.00 0.00 0.00 0.01 0.01 0.00 0.00 0.00 0.00 0.00 0.03 0.06 0.09 0.08 0.02 0.01 0.01 0.01 0.01 0.01 0.01 0.05 0.08
3.05 2.14 1.82 1.16 0.55 0.26 0.00 0.00 0.00 0.00 0.00 0.00 0.00 0.00 0.00 0.00 0.01 0.01 0.01 0.03 0.05 0.07 0.08 0.03 0.02 0.00 0.00 0.00 0.00 0.00 0.00 0.00
3.59 2.97 2.17 1.04 0.47 0.30 0.01 0.00 0.00 0.00 0.00 0.00 0.00 0.02 0.00 0.00 0.02 0.03 0.04 0.03 0.04 0.06 0.09 0.05 0.01 0.00 0.00 0.00 0.00 0.00 0.00 0.00
2.69 2.40 1.75 1.19 0.55 0.28 0.07 0.02 0.00 0.00 0.01 0.00 0.00 0.02 0.01 0.00 0.01 0.04 0.07 0.06 0.06 0.13 0.15 0.08 0.04 0.04 0.02 0.00 0.00 0.00 0.00 0.00
1.36 1.01 0.92 0.84 0.60 0.41 0.20 0.05 0.01 0.00 0.00 0.02 0.02 0.01 0.04 0.05 0.11 0.16 0.12 0.12 0.18 0.18 0.37 0.41 0.34 0.20 0.11 0.09 0.03 0.00 0.00 0.00
1.02 0.73 0.49 0.33 0.15 0.14 0.07 0.03 0.02 0.01 0.04 0.06 0.10 0.16 0.21 0.13 0.08 0.10 0.08 0.09 0.10 0.19 0.39 0.33 0.26 0.31 0.28 0.16 0.08 0.04 0.01 0.01
0.97 0.64 0.45 0.21 0.08 0.03 0.02 0.03 0.05 0.10 0.14 0.17 0.25 0.41 0.48 0.34 0.21 0.04 0.02 0.02 0.04 0.04 0.07 0.12 0.14 0.13 0.11 0.11 0.07 0.05 0.03 0.01
0.54 0.66 0.47 0.31 0.12 0.09 0.08 0.07 0.09 0.11 0.16 0.20 0.23 0.33 0.34 0.21 0.12 0.07 0.05 0.03 0.01 0.03 0.03 0.04 0.05 0.06 0.10 0.10 0.06 0.05 0.03 0.03
0.40 0.43 0.54 0.51 0.28 0.08 0.03 0.04 0.05 0.08 0.18 0.25 0.31 0.34 0.28 0.15 0.05 0.02 0.01 0.00 0.00 0.00 0.00 0.02 0.04 0.07 0.12 0.19 0.16 0.09 0.06 0.05
0.22 0.48 0.72 0.64 0.39 0.14 0.07 0.04 0.11 0.28 0.26 0.29 0.31 0.24 0.11 0.03 0.00 0.01 0.00 0.00 0.00 0.00 0.00 0.00 0.01 0.04 0.05 0.04 0.02 0.04 0.04 0.03
0.31 0.68 1.07 1.06 0.73 0.58 0.70 0.68 0.54 0.43 0.33 0.31 0.19 0.08 0.01 0.04 0.01 0.00 0.00 0.00 0.00 0.00 0.00 0.00 0.00 0.00 0.00 0.01 0.01 0.01 0.02 0.03
0.43 0.82 1.14 1.22 1.74 1.51 0.88 0.35 0.27 0.26 0.22 0.31 0.23 0.06 0.01 0.08 0.02 0.00 0.00 0.00 0.00 0.00 0.00 0.00 0.00 0.00 0.00 0.00 0.00 0.02 0.02 0.03
0.70 0.98 1.22 0.98 0.68 0.23 0.05 0.07 0.14 0.23 0.20 0.20 0.12 0.09 0.00 0.02 0.01 0.00 0.00 0.00 0.00 0.00 0.00 0.00 0.00 0.00 0.01 0.00 0.00 0.00 0.01 0.04
0.40 0.28 0.29 0.13 0.05 0.00 0.01 0.03 0.09 0.16 0.23 0.10 0.06 0.09 0.07 0.01 0.01 0.00 0.00 0.00 0.00 0.00 0.00 0.00 0.00 0.00 0.01 0.01 0.00 0.00 0.00 0.01
0.06 0.05 0.15 0.11 0.05 0.06 0.09 0.15 0.13 0.12 0.25 0.14 0.02 0.04 0.05 0.02 0.00 0.00 0.00 0.00 0.00 0.00 0.00 0.00 0.00 0.00 0.00 0.02 0.02 0.01 0.01 0.00
0.02 0.06 0.11 0.15 0.19 0.22 0.18 0.16 0.14 0.09 0.09 0.05 0.04 0.03 0.02 0.01 0.01 0.00 0.00 0.00 0.00 0.00 0.00 0.00 0.00 0.00 0.00 0.00 0.02 0.05 0.05 0.03
0.09 0.13 0.14 0.11 0.17 0.31 0.19 0.17 0.18 0.18 0.09 0.09 0.08 0.07 0.05 0.06 0.01 0.00 0.00 0.00 0.00 0.00 0.00 0.00 0.00 0.00 0.00 0.00 0.01 0.01 0.02 0.07
0.15 0.13 0.14 0.14 0.21 0.26 0.26 0.18 0.14 0.10 0.08 0.09 0.07 0.04 0.03 0.00 0.00 0.00 0.00 0.00 0.00 0.00 0.00 0.00 0.00 0.01 0.01 0.03 0.05 0.06 0.06 0.09
0.16 0.13 0.11 0.15 0.19 0.26 0.20 0.14 0.09 0.08 0.04 0.04 0.04 0.03 0.02 0.01 0.01 0.01 0.00 0.01 0.02 0.03 0.03 0.03 0.06 0.11 0.14 0.19 0.27 0.31 0.33 0.35
0.10 0.04 0.03 0.05 0.08 0.15 0.13 0.11 0.10 0.08 0.06 0.04 0.03 0.02 0.03 0.04 0.03 0.03 0.05 0.07 0.06 0.10 0.14 0.22 0.36 0.50 0.54 0.54 0.51 0.46 0.41 0.37

GFSFLT2_prec_precacc_081.txt.gz
Total_Precipitation_Accumulation
3.09 2.18 2.02 1.36 0.65 0.09 0.01 0.00 0.00 0.00 0.00 0.00 0.01 0.01 0.00 0.00 0.00 0.00 0.00 0.03 0.06 0.09 0.08 0.02 0.01 0.01 0.01 0.01 0.01 0.01 0.05 0.08
5.74 3.70 2.22 1.31 0.62 0.27 0.00 0.00 0.00 0.00 0.00 0.00 0.00 0.00 0.00 0.00 0.01 0.01 0.01 0.03 0.05 0.07 0.08 0.03 0.02 0.00 0.00 0.00 0.00 0.00 0.00 0.00
5.42 5.48 3.55 1.24 0.55 0.32 0.01 0.00 0.00 0.00 0.00 0.00 0.00 0.02 0.00 0.00 0.02 0.03 0.04 0.03 0.04 0.06 0.09 0.05 0.01 0.00 0.00 0.00 0.00 0.00 0.00 0.00
3.14 3.24 3.20 1.70 0.61 0.29 0.07 0.02 0.00 0.00 0.01 0.00 0.00 0.02 0.01 0.00 0.01 0.04 0.07 0.06 0.06 0.13 0.15 0.08 0.04 0.04 0.02 0.00 0.00 0.00 0.00 0.00
1.41 1.09 1.10 1.03 0.64 0.43 0.21 0.05 0.01 0.00 0.00 0.02 0.02 0.01 0.04 0.05 0.11 0.16 0.12 0.12 0.18 0.18 0.37 0.41 0.34 0.20 0.11 0.09 0.03 0.00 0.00 0.00
1.03 0.73 0.50 0.33 0.15 0.14 0.08 0.05 0.03 0.02 0.04 0.06 0.10 0.16 0.21 0.13 0.08 0.10 0.08 0.09 0.10 0.19 0.39 0.33 0.26 0.31 0.28 0.16 0.08 0.04 0.01 0.01
0.98 0.67 0.50 0.22 0.10 0.04 0.02 0.03 0.05 0.10 0.15 0.19 0.25 0.41 0.48 0.34 0.21 0.04 0.02 0.02 0.04 0.04 0.07 0.12 0.14 0.13 0.11 0.11 0.07 0.05 0.03 0.01
0.56 0.71 0.56 0.39 0.16 0.11 0.09 0.07 0.09 0.12 0.18 0.24 0.25 0.33 0.34 0.21 0.12 0.07 0.05 0.03 0.01 0.03 0.03 0.04 0.05 0.06 0.10 0.10 0.06 0.05 0.03 0.03
0.43 0.45 0.56 0.54 0.32 0.12 0.05 0.05 0.05 0.09 0.21 0.30 0.34 0.35 0.28 0.16 0.08 0.03 0.01 0.00 0.00 0.00 0.00 0.02 0.04 0.07 0.12 0.19 0.16 0.09 0.06 0.05
0.26 0.51 0.77 0.69 0.42 0.16 0.09 0.06 0.14 0.30 0.28 0.32 0.35 0.27 0.16 0.10 0.06 0.02 0.00 0.00 0.00 0.00 0.00 0.00 0.01 0.04 0.05 0.04 0.02 0.04 0.04 0.03
0.32 0.70 1.09 1.10 0.77 0.61 0.72 0.69 0.55 0.43 0.33 0.31 0.20 0.16 0.07 0.06 0.04 0.02 0.01 0.00 0.00 0.00 0.00 0.00 0.00 0.00 0.00 0.01 0.01 0.01 0.02 0.03
0.43 0.82 1.14 1.23 1.74 1.51 0.88 0.35 0.28 0.27 0.23 0.31 0.25 0.17 0.17 0.17 0.09 0.03 0.01 0.00 0.00 0.00 0.00 0.00 0.00 0.00 0.00 0.00 0.00 0.02 0.02 0.03
0.70 0.98 1.22 0.98 0.68 0.23 0.05 0.08 0.15 0.23 0.21 0.22 0.15 0.17 0.09 0.13 0.04 0.03 0.00 0.00 0.00 0.00 0.00 0.00 0.00 0.00 0.01 0.00 0.00 0.00 0.01 0.04
0.40 0.28 0.29 0.13 0.05 0.00 0.01 0.03 0.09 0.16 0.23 0.12 0.11 0.19 0.17 0.06 0.01 0.01 0.00 0.00 0.00 0.00 0.00 0.00 0.00 0.00 0.01 0.01 0.00 0.00 0.00 0.01
0.06 0.05 0.15 0.11 0.05 0.06 0.09 0.15 0.14 0.13 0.28 0.20 0.09 0.18 0.25 0.19 0.02 0.00 0.00 0.00 0.00 0.00 0.00 0.00 0.00 0.00 0.00 0.02 0.02 0.01 0.01 0.00
0.02 0.06 0.11 0.15 0.19 0.23 0.18 0.16 0.14 0.09 0.09 0.06 0.07 0.07 0.03 0.03 0.01 0.00 0.00 0.00 0.00 0.00 0.00 0.00 0.00 0.00 0.00 0.00 0.02 0.05 0.05 0.03
0.09 0.13 0.14 0.11 0.17 0.31 0.19 0.17 0.18 0.18 0.09 0.09 0.08 0.09 0.06 0.06 0.02 0.00 0.00 0.00 0.00 0.00 0.00 0.00 0.00 0.00 0.00 0.00 0.01 0.01 0.02 0.07
0.15 0.13 0.14 0.14 0.21 0.26 0.26 0.18 0.14 0.10 0.08 0.09 0.07 0.04 0.03 0.02 0.01 0.00 0.00 0.00 0.00 0.00 0.00 0.00 0.00 0.01 0.01 0.03 0.05 0.06 0.06 0.09
0.16 0.13 0.11 0.15 0.19 0.26 0.20 0.14 0.09 0.08 0.04 0.04 0.04 0.03 0.03 0.02 0.01 0.02 0.01 0.01 0.02 0.03 0.03 0.03 0.06 0.11 0.14 0.19 0.27 0.31 0.33 0.35
0.10 0.04 0.03 0.05 0.08 0.15 0.13 0.13 0.10 0.08 0.07 0.12 0.05 0.03 0.03 0.04 0.04 0.03 0.06 0.07 0.06 0.10 0.15 0.22 0.36 0.50 0.54 0.55 0.52 0.46 0.41 0.37

GFSFLT2_prec_precacc_084.txt.gz
Total_Precipitation_Accumulation
4.19 4.09 2.61 1.95 1.04 0.13 0.02 0.00 0.00 0.00 0.00 0.00 0.01 0.01 0.00 0.00 0.00 0.00 0.00 0.03 0.06 0.09 0.08 0.02 0.01 0.01 0.01 0.01 0.01 0.01 0.05 0.08
6.49 5.96 4.01 2.32 0.97 0.36 0.05 0.00 0.00 0.00 0.00 0.00 0.00 0.00 0.00 0.00 0.01 0.01 0.01 0.03 0.05 0.07 0.08 0.03 0.02 0.00 0.00 0.00 0.00 0.00 0.00 0.00
5.75 7.07 5.62 2.60 0.97 0.43 0.10 0.03 0.00 0.00 0.00 0.00 0.00 0.02 0.00 0.00 0.02 0.03 0.04 0.03 0.04 0.06 0.09 0.05 0.01 0.00 0.00 0.00 0.00 0.00 0.00 0.00
3.28 4.74 6.01 3.27 1.33 0.41 0.11 0.02 0.00 0.00 0.01 0.00 0.00 0.02 0.01 0.01 0.02 0.04 0.07 0.06 0.06 0.13 0.15 0.08 0.04 0.04 0.02 0.00 0.00 0.00 0.00 0.00
1.45 1.44 2.50 2.46 1.79 0.57 0.21 0.05 0.01 0.00 0.00 0.02 0.02 0.01 0.04 0.06 0.11 0.16 0.12 0.12 0.18 0.18 0.37 0.41 0.34 0.20 0.11 0.09 0.03 0.00 0.00 0.00
1.04 0.75 0.64 0.64 0.59 0.28 0.08 0.05 0.03 0.02 0.04 0.06 0.10 0.16 0.21 0.13 0.08 0.10 0.08 0.09 0.10 0.19 0.39 0.33 0.26 0.31 0.28 0.16 0.08 0.04 0.01 0.01
0.99 0.67 0.50 0.24 0.13 0.07 0.02 0.03 0.05 0.10 0.15 0.19 0.25 0.41 0.48 0.34 0.21 0.04 0.02 0.02 0.04 0.04 0.07 0.12 0.14 0.13 0.11 0.11 0.07 0.05 0.03 0.01
0.56 0.71 0.57 0.40 0.17 0.11 0.09 0.07 0.09 0.12 0.18 0.24 0.25 0.33 0.34 0.21 0.12 0.07 0.05 0.03 0.01 0.03 0.03 0.04 0.05 0.06 0.10 0.10 0.06 0.05 0.03 0.03
0.43 0.47 0.59 0.57 0.41 0.13 0.05 0.05 0.06 0.09 0.21 0.30 0.34 0.35 0.28 0.16 0.08 0.03 0.01 0.00 0.00 0.00 0.00 0.02 0.04 0.07 0.12 0.19 0.16 0.09 0.06 0.05
0.27 0.53 0.79 0.70 0.44 0.16 0.09 0.06 0.15 0.30 0.28 0.32 0.37 0.31 0.16 0.10 0.06 0.02 0.00 0.00 0.00 0.00 0.00 0.00 0.01 0.04 0.05 0.04 0.02 0.04 0.04 0.03
0.38 0.74 1.10 1.13 0.78 0.63 0.74 0.70 0.55 0.43 0.33 0.31 0.20 0.21 0.09 0.07 0.04 0.02 0.01 0.00 0.00 0.00 0.00 0.00 0.00 0.00 0.00 0.01 0.01 0.01 0.02 0.03
0.46 0.87 1.15 1.25 1.76 1.54 0.91 0.37 0.28 0.27 0.23 0.31 0.25 0.18 0.24 0.21 0.11 0.03 0.02 0.00 0.00 0.00 0.00 0.00 0.00 0.00 0.00 0.00 0.00 0.02 0.02 0.03
0.71 0.98 1.22 0.99 0.68 0.23 0.06 0.08 0.15 0.23 0.21 0.22 0.15 0.17 0.10 0.15 0.07 0.04 0.00 0.00 0.00 0.00 0.00 0.00 0.00 0.00 0.01 0.00 0.00 0.00 0.01 0.04
0.40 0.28 0.29 0.13 0.05 0.00 0.01 0.03 0.09 0.16 0.23 0.12 0.11 0.19 0.18 0.07 0.02 0.07 0.00 0.00 0.00 0.00 0.00 0.00 0.00 0.00 0.01 0.01 0.00 0.00 0.00 0.01
0.06 0.05 0.15 0.11 0.05 0.06 0.09 0.15 0.14 0.13 0.28 0.20 0.09 0.18 0.28 0.22 0.02 0.02 0.00 0.00 0.00 0.00 0.00 0.00 0.00 0.00 0.00 0.02 0.02 0.01 0.01 0.00
0.02 0.06 0.11 0.15 0.19 0.23 0.18 0.16 0.14 0.09 0.09 0.06 0.07 0.08 0.09 0.07 0.01 0.01 0.00 0.00 0.00 0.00 0.00 0.00 0.00 0.00 0.00 0.00 0.02 0.05 0.05 0.03
0.09 0.13 0.14 0.11 0.17 0.31 0.19 0.17 0.18 0.18 0.09 0.09 0.08 0.10 0.08 0.08 0.02 0.03 0.02 0.00 0.00 0.00 0.00 0.00 0.00 0.00 0.00 0.00 0.01 0.01 0.02 0.07
0.15 0.13 0.14 0.14 0.21 0.26 0.26 0.18 0.14 0.10 0.08 0.09 0.07 0.05 0.06 0.02 0.01 0.00 0.01 0.01 0.02 0.01 0.00 0.00 0.00 0.01 0.01 0.03 0.05 0.06 0.06 0.09
0.16 0.13 0.11 0.15 0.19 0.26 0.20 0.14 0.09 0.08 0.04 0.04 0.04 0.03 0.03 0.02 0.02 0.02 0.01 0.02 0.03 0.03 0.03 0.04 0.06 0.11 0.15 0.20 0.27 0.31 0.33 0.35
0.10 0.04 0.03 0.05 0.08 0.15 0.13 0.13 0.10 0.08 0.07 0.12 0.06 0.03 0.03 0.04 0.04 0.03 0.06 0.07 0.06 0.11 0.16 0.25 0.45 0.64 0.67 0.63 0.56 0.48 0.41 0.37